Location: Tel Aviv
(32.0670°N, 34.7670°E)
Time: 13:13:44
(UTC+03:00)

Transit 2A - Pass Details

Date: 29 January 2022
Orbit: 598 x 960 km, 66.7° (Epoch: 20 May)

Event Time Altitude Azimuth Distance (km) Brightness Sun altitude
Rises 19:45:56 0° 329° (NNW) 3,505 9.8 -32.7°
Reaches altitude 10° 19:48:35 10° 326° (NW) 2,513 9.0 -33.3°
Enters shadow 19:52:21 38° 306° (NW) 1,245 7.3 -34.1°
Maximum altitude 19:54:15 57° 249° (WSW) 947 - -34.5°
Drops below altitude 10° 19:59:20 10° 171° (S) 2,259 - -35.6°
Sets 20:01:36 0° 167° (SSE) 3,123 - -36.0°
